Buckland, AK

3:15 PM AKST on November 21, 2017 (GMT -0900)
Buckland

Weather History for PABL - November, 2012

Change the Weather History Date:

Thursday, November 15, 2012

  Actual Average (PASK) Record (PASK)
Temperature  
Mean Temperature 1 °F -  
Max Temperature 6 °F 14 °F 35 °F (2000)
Min Temperature -4 °F 4 °F -23 °F (2007)
Degree Days  
Heating Degree Days 64    
Moisture  
Dew Point -5 °F    
Average Humidity 75    
Maximum Humidity 100    
Minimum Humidity 56    
Precipitation  
Precipitation 0.00 in - - ()
Sea Level Pressure  
Sea Level Pressure 30.26 in    
Wind  
Wind Speed 6 mph (NNW)    
Max Wind Speed 16 mph    
Max Gust Speed -    
Visibility 10 miles    
Events      
Averages and records for this station are not official NWS values.
T = Trace of Precipitation, MM = Missing Value Source: NWS Daily Summary

Daily Weather History Graph

Daily Weather History Graph

Search for Another Location

Airport or City:

Trip Planner

Search our weather history database for the weather conditions in past years. The results will help you decide how hot, cold, wet, or windy it might be!

Date:

Astronomy

Nov. 15, 2012 Rise Set
Actual Time 10:34 AM AKST 4:23 PM AKST
Civil Twilight 9:26 AM AKST 5:31 PM AKST
Nautical Twilight 8:20 AM AKST 6:37 PM AKST
Astronomical Twilight 7:19 AM AKST 7:37 PM AKST
Moon 1:29 PM AKST (11/15) 5:42 PM AKST (11/15)
Length of Visible Light 8h 04m
Length of Day
5h 48m
Waxing Crescent, 6% of the Moon is Illuminated
Nov 15
Waxing Crescent
Nov 20
First Quarter
Nov 28
Full
Dec 6
Last Quarter
Dec 12
New

Hourly Weather History & Observations

Time (AKST) Temp. Windchill Dew Point Humidity Pressure Visibility Wind Dir Wind Speed Gust Speed Precip Events Conditions
12:16 AM 3.2 °F -7.8 °F -5.8 °F 66% 30.12 in 10.0 mi WNW 5.8 mph - N/A   Clear
12:36 AM 1.4 °F -13.5 °F -9.4 °F 61% 30.12 in 10.0 mi West 9.2 mph - N/A   Clear
12:56 AM 1.4 °F -13.5 °F -5.8 °F 72% 30.13 in 10.0 mi WNW 9.2 mph - N/A   Clear
1:16 AM 1.4 °F -16.1 °F -7.6 °F 66% 30.13 in 10.0 mi NW 12.7 mph - N/A   Clear
1:36 AM 3.2 °F -11.3 °F -4.0 °F 72% 30.13 in 10.0 mi NNW 9.2 mph - N/A   Clear
1:56 AM 1.4 °F -11.3 °F -11.2 °F 56% 30.15 in 10.0 mi SSW 6.9 mph - N/A   Clear
2:16 AM 3.2 °F - -2.2 °F 78% 30.15 in 10.0 mi Calm Calm - N/A   Clear
2:36 AM 3.2 °F -4.2 °F -7.6 °F 61% 30.16 in 10.0 mi West 3.5 mph - N/A   Clear
2:56 AM 1.4 °F - -7.6 °F 66% 30.16 in 10.0 mi Calm Calm - N/A   Clear
3:16 AM 1.4 °F - -5.8 °F 72% 30.17 in 10.0 mi Calm Calm - N/A   Clear
3:36 AM 3.2 °F -12.2 °F -4.0 °F 72% 30.17 in 10.0 mi NW 10.4 mph - N/A   Clear
3:56 AM 1.4 °F -12.5 °F -9.4 °F 61% 30.17 in 10.0 mi NNW 8.1 mph - N/A   Clear
4:16 AM 1.4 °F -8.3 °F -4.0 °F 78% 30.17 in 10.0 mi NW 4.6 mph - N/A   Clear
4:36 AM 3.2 °F -9.1 °F -2.2 °F 78% 30.18 in 10.0 mi North 6.9 mph - N/A   Clear
4:56 AM 1.4 °F -14.5 °F -7.6 °F 66% 30.19 in 10.0 mi NNW 10.4 mph - N/A   Clear
5:16 AM 1.4 °F -15.3 °F -5.8 °F 72% 30.19 in 10.0 mi NNW 11.5 mph - N/A   Clear
5:36 AM 1.4 °F -6.2 °F -7.6 °F 66% 30.19 in 10.0 mi North 3.5 mph - N/A   Clear
5:56 AM 1.4 °F -14.5 °F -5.8 °F 72% 30.20 in 10.0 mi NNW 10.4 mph - N/A   Clear
6:16 AM -0.4 °F -20.5 °F -11.2 °F 60% 30.20 in 10.0 mi NNW 16.1 mph - N/A   Clear
6:36 AM -0.4 °F -18.4 °F -4.0 °F 85% 30.21 in 10.0 mi NNW 12.7 mph - N/A   Clear
6:56 AM -0.4 °F -15.7 °F -9.4 °F 66% 30.22 in 10.0 mi NNW 9.2 mph - N/A   Clear
7:16 AM -0.4 °F -13.4 °F -7.6 °F 72% 30.23 in 10.0 mi North 6.9 mph - N/A   Clear
7:36 AM 1.4 °F -11.3 °F -5.8 °F 72% 30.23 in 10.0 mi North 6.9 mph - N/A   Clear
7:56 AM -0.4 °F -12.0 °F -11.2 °F 60% 30.23 in 10.0 mi North 5.8 mph - N/A   Clear
8:16 AM -0.4 °F -13.4 °F -5.8 °F 78% 30.23 in 10.0 mi NNW 6.9 mph - N/A   Clear
8:36 AM -0.4 °F - -7.6 °F 72% 30.24 in 10.0 mi Calm Calm - N/A   Clear
8:56 AM -0.4 °F - -9.4 °F 66% 30.24 in 10.0 mi Calm Calm - N/A   Clear
9:16 AM -0.4 °F -13.4 °F -4.0 °F 85% 30.24 in 10.0 mi North 6.9 mph - N/A   Clear
9:36 AM -0.4 °F -15.7 °F -7.6 °F 72% 30.25 in 10.0 mi NNW 9.2 mph - N/A   Clear
9:56 AM -0.4 °F -13.4 °F -9.4 °F 66% 30.26 in 10.0 mi North 6.9 mph - N/A   Clear
10:16 AM -0.4 °F - -2.2 °F 92% 30.26 in 10.0 mi Calm Calm - N/A   Clear
10:36 AM 1.4 °F - -5.8 °F 72% 30.26 in 10.0 mi Calm Calm - N/A   Clear
10:56 AM -4.0 °F - -14.8 °F 60% 30.27 in 10.0 mi Calm Calm - N/A   Clear
11:16 AM -2.2 °F - -5.8 °F 85% 30.27 in 10.0 mi Calm Calm - N/A   Clear
11:36 AM -0.4 °F - -7.6 °F 72% 30.28 in 10.0 mi Calm Calm - N/A   Clear
11:56 AM -0.4 °F - -4.0 °F 85% 30.27 in 10.0 mi Calm Calm - N/A   Clear
12:16 PM -0.4 °F - -5.8 °F 78% 30.28 in 10.0 mi Calm Calm - N/A   Clear
12:36 PM -0.4 °F - -5.8 °F 78% 30.28 in 10.0 mi Calm Calm - N/A   Clear
12:56 PM -0.4 °F - -5.8 °F 78% 30.29 in 10.0 mi Calm Calm - N/A   Clear
1:16 PM 1.4 °F - 1.4 °F 100% 30.28 in 10.0 mi Calm Calm - N/A   Clear
1:36 PM 5.0 °F -5.6 °F -0.4 °F 78% 30.29 in 10.0 mi North 5.8 mph - N/A   Clear
1:56 PM 5.0 °F -6.9 °F -4.0 °F 66% 30.30 in 10.0 mi NNW 6.9 mph - N/A   Clear
2:16 PM 5.0 °F -4.1 °F -0.4 °F 78% 30.29 in 10.0 mi NNW 4.6 mph - N/A   Clear
2:36 PM 6.8 °F -4.8 °F 1.4 °F 79% 30.29 in 10.0 mi NNW 6.9 mph - N/A   Clear
2:56 PM 6.8 °F -3.5 °F -2.2 °F 67% 30.29 in 10.0 mi North 5.8 mph - N/A   Clear
3:16 PM 5.0 °F -4.1 °F -2.2 °F 72% 30.29 in 10.0 mi North 4.6 mph - N/A   Clear
3:36 PM 5.0 °F -2.1 °F -0.4 °F 78% 30.30 in 10.0 mi NNW 3.5 mph - N/A   Clear
3:56 PM 5.0 °F -5.6 °F 1.4 °F 85% 30.30 in 10.0 mi North 5.8 mph - N/A   Clear
4:16 PM 3.2 °F -9.1 °F -4.0 °F 72% 30.30 in 10.0 mi North 6.9 mph - N/A   Clear
4:36 PM 1.4 °F -11.3 °F -5.8 °F 72% 30.30 in 10.0 mi NNW 6.9 mph - N/A   Clear
4:56 PM 3.2 °F -13.1 °F 3.2 °F 100% 30.30 in 10.0 mi NNW 11.5 mph - N/A   Clear
5:16 PM 3.2 °F -11.3 °F -7.6 °F 61% 30.30 in 10.0 mi North 9.2 mph - N/A   Clear
5:36 PM 5.0 °F -9.1 °F -2.2 °F 72% 30.30 in 10.0 mi North 9.2 mph - N/A   Clear
5:56 PM 5.0 °F -8.1 °F 3.2 °F 92% 30.30 in 10.0 mi NNW 8.1 mph - N/A   Clear
6:16 PM 1.4 °F -14.5 °F -7.6 °F 66% 30.31 in 10.0 mi NNW 10.4 mph - N/A   Clear
6:36 PM 1.4 °F -12.5 °F -2.2 °F 85% 30.31 in 10.0 mi NNW 8.1 mph - N/A   Clear
6:56 PM 5.0 °F -8.1 °F -0.4 °F 78% 30.32 in 10.0 mi NNW 8.1 mph - N/A   Clear
7:16 PM 3.2 °F -11.3 °F -5.8 °F 66% 30.32 in 10.0 mi North 9.2 mph - N/A   Clear
7:36 PM 1.4 °F -9.9 °F -4.0 °F 78% 30.33 in 10.0 mi NNE 5.8 mph - N/A   Clear
7:56 PM -0.4 °F -16.7 °F -0.4 °F 100% 30.33 in 10.0 mi NNW 10.4 mph - N/A   Clear
8:16 PM 1.4 °F -11.3 °F -2.2 °F 85% 30.33 in 10.0 mi North 6.9 mph - N/A   Clear
8:36 PM 3.2 °F -4.2 °F -2.2 °F 78% 30.33 in 10.0 mi NNE 3.5 mph - N/A   Clear
8:56 PM 3.2 °F - -0.4 °F 85% 30.32 in 10.0 mi Calm Calm - N/A   Clear
9:16 PM 1.4 °F - -4.0 °F 78% 30.33 in 10.0 mi Calm Calm - N/A   Clear
9:36 PM -0.4 °F -12.0 °F -5.8 °F 78% 30.34 in 10.0 mi ENE 5.8 mph - N/A   Clear
9:56 PM 3.2 °F -7.8 °F 1.4 °F 92% 30.33 in 10.0 mi North 5.8 mph - N/A   Clear
10:16 PM 3.2 °F -7.8 °F 1.4 °F 92% 30.33 in 10.0 mi NNW 5.8 mph - N/A   Clear
10:36 PM 1.4 °F - -5.8 °F 72% 30.34 in 10.0 mi Calm Calm - N/A   Clear
10:56 PM 1.4 °F -11.3 °F -0.4 °F 92% 30.34 in 10.0 mi North 6.9 mph - N/A   Clear
11:16 PM 3.2 °F - 1.4 °F 92% 30.35 in 10.0 mi Calm Calm - N/A   Clear
11:36 PM -0.4 °F - -4.0 °F 85% 30.35 in 10.0 mi Calm Calm - N/A   Clear
11:56 PM 1.4 °F - -11.2 °F 56% 30.35 in 10.0 mi Calm Calm - N/A   Clear